Temp
10 10 10 9 10 10 10 12 11 14 14 12 13 14 17 18 18 18 19 20 19 19 20 20 21 20 20 21 21 21 21 21 20 22 24 23 22 23 22 14 19 16 13 15
10 10 10 9 9 9 10 10 10 13 14 13 13 15 16 18 19 18 19 18 19 20 19 19 19 20 20 20 20 19 19 19 17 19 20 20 19 20 21 20 16 17 13 15
10 10 10 10 10 10 11 10 9 10 11 12 15 14 15 16 18 18 18 18 19 19 18 19 18 20 21 21 20 16 18 20 19 16 19 19 18 20 21 20 12 15 15 18
9 9 10 10 10 10 9 9 10 11 9 10 12 14 16 15 16 18 17 17 17 17 16 17 17 20 19 20 19 20 20 18 19 19 19 20 19 19 20 19 18 16 17 18
9 10 10 10 10 9 9 9 11 11 11 12 12 12 14 16 17 16 16 16 18 18 17 16 16 17 17 17 18 18 18 15 18 13 18 19 18 19 19 19 20 20 19 19
9 9 10 10 9 8 9 12 12 12 11 11 11 12 14 16 16 16 17 17 17 18 17 19 18 17 18 19 17 16 17 14 13 14 18 17 15 16 19 20 20 20 18 18
9 9 10 9 9 9 11 12 12 11 8 11 13 14 15 15 16 16 17 17 16 18 19 18 18 19 18 18 19 18 16 16 12 11 16 12 16 20 20 21 22 21 17 16
9 9 10 9 9 9 9 10 11 10 10 13 14 15 15 15 16 17 17 17 16 16 16 13 13 15 16 17 17 17 16 13 11 11 11 16 18 20 21 20 18 18 17 15
9 9 9 9 9 9 9 9 9 9 9 10 15 15 15 12 13 15 15 15 15 14 13 11 12 12 15 16 17 16 13 13 11 12 12 13 16 20 20 21 15 16 14 14
8 8 9 9 9 8 8 8 9 9 8 10 12 12 13 14 13 11 13 13 14 14 11 11 11 11 17 14 14 13 11 10 13 11 10 13 17 19 20 15 14 15 14 13
8 8 8 8 8 8 7 8 8 8 7 7 8 10 9 9 9 11 11 11 10 8 10 9 9 11 13 15 17 14 12 11 11 11 12 13 16 17 16 14 15 15 14 13
8 8 8 8 8 8 7 8 8 8 7 5 8 9 10 10 10 9 9 11 12 10 8 9 11 11 13 13 11 15 12 12 10 11 12 14 17 16 15 15 14 15 13 11
7 7 7 7 7 8 7 8 8 8 4 4 6 8 9 10 10 11 9 9 10 11 11 11 11 12 12 10 11 15 16 15 13 13 15 15 15 18 16 15 14 14 12 10
7 7 7 7 7 7 7 8 7 8 5 5 5 7 8 9 10 10 11 10 10 10 10 11 7 9 13 11 12 12 12 16 15 13 16 16 17 17 17 16 14 12 11 10
6 7 7 7 7 7 7 7 7 8 7 4 4 6 7 9 9 9 10 11 9 9 10 9 9 11 11 9 10 9 14 14 10 10 15 14 15 17 16 13 12 10 10 9
7 6 7 7 7 7 6 4 6 7 7 3 4 5 6 7 9 9 10 10 10 10 10 9 10 12 9 7 7 13 15 15 15 14 16 15 14 14 16 13 11 10 9 9
6 6 6 6 6 6 6 4 7 7 7 3 4 4 5 6 8 8 8 9 8 8 7 6 8 9 9 5 7 13 13 14 13 14 14 13 14 13 14 14 12 11 11 10
6 6 6 6 6 5 6 7 8 6 5 3 4 5 4 5 5 5 7 5 7 7 7 7 9 9 7 7 11 12 13 14 14 14 14 12 13 13 14 13 10 9 7 7
5 5 6 6 5 4 6 7 6 6 5 3 4 6 5 5 6 5 6 6 5 7 5 7 8 5 7 10 12 13 13 13 14 13 13 13 12 12 12 9 8 8 7 5
4 4 3 2 4 6 6 6 4 4 4 4 5 5 5 5 5 5 5 5 6 6 7 9 6 9 11 12 12 12 12 13 13 11 11 11 11 11 11 11 9 8 7 5
3 0 1 4 6 6 3 3 4 3 3 3 4 7 4 5 6 6 6 6 6 7 6 8 6 6 9 11 11 12 13 13 13 12 11 11 11 10 9 9 7 7 5 5
2 3 5 6 4 3 3 4 3 4 5 4 5 6 5 5 6 5 5 6 6 7 7 5 6 7 12 11 12 12 12 12 12 13 12 12 12 12 9 6 6 6 6 4
5 6 3 3 3 4 4 4 5 4 4 6 6 6 5 5 6 5 6 6 5 8 4 6 6 9 11 11 11 11 11 12 11 11 12 12 11 12 9 6 6 5 4 3
3 3 3 3 3 3 4 5 6 4 5 7 8 7 6 6 5 5 6 6 7 4 6 7 5 10 11 11 11 11 11 11 10 10 10 9 9 8 8 7 5 3 1 0
3 3 4 3 4 4 6 7 8 8 8 9 8 7 6 5 5 5 7 6 6 7 7 7 7 10 10 10 10 10 9 8 8 9 7 1 4 4 2 4 3 1 -1 -1
3 4 4 4 5 4 5 5 7 8 10 9 7 6 6 6 6 6 6 7 8 7 6 6 8 10 10 10 9 9 9 8 7 4 3 2 1 1 -1 -0 -1 -1 -1 -3
3 3 3 3 5 6 6 7 7 10 8 7 4 6 6 6 6 7 6 5 8 4 6 7 9 10 9 9 7 6 7 7 4 3 2 1 1 -0 -1 -2 -3 -3 -3 -2
Height
765 774 780 788 794 799 802 806 811 803 810 824 819 818 811 808 806 807 809 806 813 813 809 808 804 807 805 798 800 807 803 809 825 812 795 794 801 807 811 856 840 851 867 860
761 770 776 785 789 794 794 799 803 803 804 811 813 808 807 804 802 805 807 810 810 806 809 817 812 808 802 801 805 814 811 820 840 827 816 809 820 813 810 817 836 846 872 858
756 766 773 780 785 788 792 791 806 804 803 801 803 810 808 805 795 800 801 806 807 810 815 811 815 811 805 802 805 813 814 818 824 844 828 823 828 818 808 817 860 851 849 833
754 760 768 775 780 785 791 786 791 792 808 806 806 806 798 802 802 797 799 807 808 812 825 819 822 811 814 810 809 808 813 829 819 817 819 818 820 819 815 820 822 839 831 823
747 754 760 770 777 784 790 784 782 785 793 795 805 803 799 792 796 797 802 805 801 803 812 817 819 817 822 823 815 816 815 836 822 842 820 818 822 814 814 812 809 810 811 812
742 751 758 767 774 781 784 781 779 780 787 793 798 795 795 789 789 792 791 797 799 801 803 797 802 805 808 809 816 821 822 833 842 843 821 824 835 814 804 800 796 798 813 811
739 747 755 763 771 778 779 780 779 781 794 786 790 785 788 786 785 792 788 790 795 793 790 796 800 802 805 807 808 810 824 826 843 854 833 856 810 791 790 791 786 789 802 810
733 744 751 761 769 775 780 781 781 782 787 780 782 782 782 784 780 783 786 786 789 786 796 820 824 818 816 813 807 810 814 831 851 853 853 824 803 790 787 791 801 796 801 810
730 741 749 759 767 773 780 783 784 784 788 786 778 777 777 787 786 784 782 786 788 791 807 823 827 831 817 816 807 805 817 820 841 848 846 841 808 785 780 781 818 803 803 809
729 739 747 756 765 772 779 785 786 786 788 782 781 785 782 777 780 789 784 787 794 794 812 822 828 829 801 818 813 822 831 837 831 844 850 826 794 788 783 816 817 801 802 807
728 737 746 754 763 770 777 783 787 787 790 789 789 791 791 790 789 790 785 794 801 813 818 824 827 819 808 801 794 809 820 835 836 837 837 829 790 791 803 801 795 797 800 804
728 737 745 753 761 769 777 783 786 788 793 796 794 795 792 795 796 797 790 786 789 797 812 812 806 812 801 801 816 793 818 811 824 821 817 793 784 785 782 785 791 793 798 803
728 736 744 752 759 768 775 782 785 789 796 797 795 794 796 795 796 795 797 795 797 791 795 797 801 802 798 814 803 790 787 788 800 801 791 787 786 783 784 785 788 790 794 800
728 735 744 751 758 768 776 780 785 787 795 802 799 795 794 795 796 798 797 798 800 796 794 796 808 809 787 796 792 793 790 783 786 791 784 781 779 779 779 782 783 788 792 797
728 736 744 752 760 768 776 782 783 786 790 800 798 789 792 794 794 797 798 800 802 801 799 801 800 793 793 796 796 800 780 783 800 802 780 783 782 777 778 782 784 787 791 797
729 737 744 752 760 768 776 783 785 787 788 797 805 797 792 791 793 795 796 796 796 797 796 799 796 791 800 811 811 778 776 774 775 778 773 776 777 776 775 778 781 784 787 793
730 738 745 752 760 766 774 781 780 783 788 797 804 799 791 791 792 794 795 794 794 794 796 801 799 796 796 810 804 778 774 774 774 769 773 776 774 776 772 773 775 779 785 790
730 737 747 754 761 769 773 775 775 780 787 796 804 796 798 791 794 798 793 797 794 795 794 794 794 794 796 794 775 774 773 772 768 765 766 770 770 769 769 769 773 779 783 787
731 740 748 754 760 765 769 777 780 782 788 794 798 791 796 793 790 792 793 792 801 793 800 793 794 798 787 771 766 765 765 765 760 761 762 763 765 765 764 768 772 775 780 784
732 740 746 751 755 761 771 779 785 785 785 786 785 785 790 791 789 793 798 796 797 797 791 783 789 768 759 758 760 760 759 756 756 760 760 761 761 760 760 760 762 767 771 778
730 737 740 743 752 762 768 777 780 782 782 780 775 774 785 785 788 790 790 793 795 792 788 784 780 763 752 751 751 746 745 748 750 751 751 752 753 754 756 756 756 761 767 773
725 731 738 746 753 761 764 767 772 772 767 763 763 766 773 779 779 788 789 788 789 784 774 783 771 752 740 741 735 740 740 741 742 742 742 741 742 742 743 746 749 755 761 768
724 727 737 741 745 743 747 750 753 760 750 742 750 762 768 773 775 780 782 785 787 770 784 769 758 740 734 734 734 735 733 733 733 733 733 733 734 733 734 737 741 748 756 765
722 724 730 735 733 733 730 730 728 731 730 730 737 750 760 764 773 774 775 774 771 783 768 752 752 737 729 729 729 730 729 728 728 728 729 728 727 727 728 730 736 744 753 761
719 720 712 719 711 714 711 712 715 718 720 727 735 745 751 762 766 764 761 766 763 751 749 744 731 725 725 726 725 725 724 725 725 725 726 725 723 724 729 732 737 742 751 760
711 708 705 703 709 712 711 711 713 712 714 723 733 743 750 751 750 753 754 746 741 740 735 726 722 721 720 720 719 719 719 721 722 723 725 727 728 730 732 737 741 746 750 759
700 698 697 697 696 695 700 702 705 705 713 722 735 738 738 740 745 742 738 739 722 731 722 718 715 715 715 715 716 717 718 720 722 724 727 729 731 733 737 742 749 752 756 761
Wind_Speed
37 33 31 30 29 28 27 5 3 28 32 4 3 5 7 8 7 10 6 2 4 4 5 5 7 3 3 4 6 5 5 2 1 2 3 7 4 3 4 4 1 2 5 5
40 36 34 33 32 33 19 4 3 24 18 8 5 5 7 8 6 7 7 4 4 3 1 1 7 6 3 5 4 2 5 3 2 6 4 6 3 4 4 4 3 4 4 5
43 39 37 35 34 35 13 3 3 1 2 3 10 6 8 7 9 5 6 4 5 1 2 3 3 3 2 6 3 1 2 3 3 5 3 3 2 4 4 2 4 4 6 6
43 41 39 37 35 34 9 1 4 5 5 5 7 6 6 12 8 7 9 5 7 8 5 3 3 3 5 6 4 4 0 2 3 3 5 3 5 9 6 4 6 5 7 10
47 45 44 40 35 31 9 2 2 2 4 10 13 11 7 12 15 9 7 7 10 13 7 7 8 4 2 7 3 2 1 3 4 5 5 5 10 13 11 12 14 11 9 7
48 46 44 40 36 27 5 7 6 2 5 7 9 13 13 13 10 8 8 9 5 3 5 1 7 7 1 3 5 6 3 3 2 4 4 7 7 7 12 10 10 7 7 5
49 47 43 39 37 33 6 3 2 2 2 4 9 9 15 14 12 16 12 8 9 5 7 5 6 2 4 5 5 3 4 3 3 3 2 2 7 7 8 4 2 5 13 8
52 48 43 40 37 34 19 2 1 1 1 3 8 10 9 14 11 12 6 4 1 6 6 4 3 1 3 6 7 6 6 4 1 2 2 8 12 8 4 5 3 5 15 13
49 45 41 38 35 33 31 5 6 2 2 3 5 6 9 6 4 2 6 4 7 6 3 3 4 5 5 5 3 2 6 5 5 2 3 6 7 3 6 4 1 4 9 8
45 43 39 35 32 30 25 4 4 0 1 4 6 4 3 3 4 4 5 6 2 5 3 3 4 4 3 5 8 5 3 2 8 4 4 7 12 4 5 4 5 6 7 8
40 38 36 33 31 28 25 13 5 4 1 4 9 6 6 5 4 1 4 5 4 3 3 4 4 4 5 5 5 8 6 6 4 3 2 10 10 5 8 5 5 7 6 6
36 35 34 32 31 27 22 6 8 5 4 2 6 7 9 9 3 2 5 6 5 5 3 2 2 2 2 4 2 5 4 7 6 9 7 7 5 4 5 7 6 5 7 6
31 31 32 31 29 28 25 10 14 8 3 4 3 1 4 10 7 8 3 4 4 4 2 3 4 3 4 3 5 5 5 9 5 4 7 8 10 4 6 6 7 6 7 8
31 30 29 28 27 26 26 14 12 9 6 2 4 3 3 3 2 5 3 2 5 4 1 1 2 2 1 2 4 3 5 5 6 4 6 5 1 6 5 2 8 8 8 7
28 27 25 24 24 23 25 12 14 13 5 3 3 12 2 4 2 4 3 7 2 3 2 2 1 1 3 3 2 2 2 3 3 5 5 5 5 2 1 8 8 10 8 7
25 25 25 24 24 23 19 1 10 17 6 3 2 5 3 4 4 4 7 4 3 3 2 2 2 1 2 1 3 5 5 4 1 4 2 3 7 8 6 9 11 9 9 10
27 27 26 25 26 31 11 4 5 24 11 3 1 4 2 2 2 2 1 1 0 2 2 1 2 2 2 2 4 4 8 8 11 12 3 4 4 6 6 7 15 21 17 16
27 26 26 27 28 25 17 1 4 28 11 4 1 2 3 2 1 1 2 2 1 2 2 1 1 2 2 4 6 9 13 13 17 18 11 6 7 7 6 7 17 12 9 9
28 27 24 24 14 6 9 14 25 13 5 5 4 2 3 2 1 2 2 2 1 2 2 3 3 3 7 6 7 8 8 11 13 11 11 11 9 10 9 9 11 12 9 9
32 24 6 2 11 16 18 14 2 2 1 1 3 3 3 3 2 2 2 1 2 2 4 3 4 10 13 9 7 10 11 11 10 10 11 7 7 8 9 8 14 14 12 16
15 3 2 14 27 11 2 3 3 3 3 4 4 9 5 3 3 2 3 2 2 2 4 6 4 5 7 12 17 22 22 19 15 12 9 9 9 9 7 5 11 18 22 20
14 14 18 19 4 2 5 5 4 4 6 5 7 6 4 3 4 3 2 3 2 5 3 3 4 2 6 10 15 12 13 15 16 20 16 16 14 19 12 10 16 22 26 29
15 4 3 3 4 6 6 8 6 4 4 6 7 8 5 2 3 2 3 4 4 1 0 4 4 3 5 7 6 6 7 9 9 11 12 11 9 13 15 15 23 28 27 30
2 4 8 6 5 5 4 9 8 6 5 10 13 8 4 3 4 3 5 5 3 3 4 5 2 7 10 7 6 5 9 9 9 7 5 9 11 11 19 26 33 32 27 31
3 3 5 7 4 3 8 9 9 3 7 9 10 3 4 3 3 4 4 5 5 6 4 5 6 9 7 7 7 8 8 6 3 2 3 3 6 15 16 25 28 31 33 32
3 5 3 3 6 2 4 4 7 5 9 9 4 4 3 4 4 5 8 5 6 4 4 4 4 6 7 8 8 6 5 5 4 6 8 10 13 15 18 23 26 30 35 31
5 5 4 2 5 11 7 10 5 7 8 9 4 7 8 4 3 5 5 5 8 4 5 3 4 5 8 6 6 6 6 7 10 13 13 13 20 24 22 14 16 23 26 30
Wind_Direction
194 191 189 187 184 176 170 188 187 163 162 161 196 189 193 205 216 226 263 294 273 256 360 313 15 98 90 339 340 344 342 109 90 338 73 45 354 338 153 117 241 135 144 276
190 189 186 185 182 179 161 179 125 168 170 191 198 207 233 196 188 202 195 224 224 338 33 312 3 55 286 297 65 46 335 337 36 349 3 25 34 311 19 120 80 175 128 258
188 187 184 182 180 181 191 145 126 199 183 288 198 194 211 221 191 233 161 202 245 116 1 356 329 120 43 355 72 221 22 315 183 183 232 173 269 265 259 136 118 218 210 249
189 185 183 181 184 185 187 272 181 174 195 214 233 229 215 224 204 198 166 228 208 193 195 204 275 235 260 355 317 337 135 244 309 333 72 307 287 275 291 273 244 202 243 225
187 183 182 184 185 189 205 214 129 133 164 180 211 224 232 206 212 175 208 220 201 219 189 182 187 274 118 219 261 308 347 247 358 311 305 286 275 261 244 248 253 253 252 261
187 185 183 187 190 176 186 223 287 125 185 173 188 217 231 222 188 228 205 202 212 270 304 241 151 151 263 252 182 196 141 119 72 272 360 352 304 232 228 240 247 208 233 156
188 185 186 190 194 189 180 193 85 79 252 172 207 209 222 234 216 201 204 200 200 198 103 47 71 104 267 270 249 159 161 134 101 227 21 264 240 294 271 243 315 115 104 107
185 186 188 192 196 199 206 318 21 109 203 195 234 224 207 238 255 215 192 181 141 93 74 73 34 26 298 247 231 237 183 135 103 156 229 294 307 292 267 180 32 92 124 128
184 188 188 194 197 199 208 235 20 28 98 271 307 284 207 205 207 236 142 94 95 79 101 107 159 200 178 216 173 224 80 137 139 139 207 229 241 43 53 71 165 112 103 114
183 184 187 192 195 198 201 206 208 67 93 340 15 13 319 323 180 174 115 125 107 131 114 182 163 213 232 223 150 172 96 35 184 178 215 278 276 38 342 126 225 138 120 144
182 182 186 190 195 198 192 196 223 83 20 22 21 15 23 348 22 173 209 77 343 72 155 142 206 183 226 214 195 162 158 157 177 156 206 255 239 288 195 197 149 142 142 143
183 184 188 192 194 196 191 176 198 199 49 270 355 338 35 38 33 266 325 163 158 174 135 191 192 205 223 185 225 160 175 176 180 179 206 234 270 173 134 158 148 141 119 142
185 186 189 192 193 193 187 166 151 122 87 313 51 60 317 2 16 17 41 22 333 8 8 174 206 211 157 194 229 221 219 190 188 134 245 242 229 176 167 169 164 158 141 148
183 183 189 192 193 191 186 183 167 122 110 139 278 46 351 282 295 323 331 82 343 298 340 231 201 177 193 226 220 165 203 178 209 243 270 338 237 215 259 137 126 121 128 152
177 180 182 186 189 186 186 190 194 180 138 165 290 321 71 287 260 262 266 248 182 317 331 358 256 300 33 323 52 250 206 218 156 215 216 174 226 322 43 146 162 155 142 146
181 184 185 186 186 179 162 66 222 199 104 87 357 308 289 340 195 262 284 245 214 183 176 186 266 247 104 209 234 213 246 286 251 252 182 247 261 273 240 166 164 160 150 155
179 181 181 182 181 174 163 165 181 183 154 85 357 285 314 313 199 190 219 21 24 130 178 182 192 219 126 199 209 293 307 307 299 285 343 306 253 253 234 172 171 157 156 161
178 174 179 178 175 172 200 203 181 162 102 93 264 264 324 201 173 164 190 128 83 305 186 329 182 311 181 247 205 215 234 251 267 272 266 233 265 281 263 175 139 144 151 152
173 171 172 165 170 154 175 197 157 146 131 158 175 206 239 185 160 85 25 85 112 260 201 207 146 218 223 205 198 208 217 223 241 259 258 261 253 258 251 156 163 158 164 154
165 156 142 145 165 139 149 154 146 224 302 145 180 179 198 201 131 115 109 145 145 228 237 181 210 243 242 244 262 277 264 253 244 252 266 266 262 247 244 212 183 177 170 158
163 130 168 134 137 126 137 141 177 154 201 190 204 195 146 226 149 139 156 158 159 229 250 178 247 259 235 226 235 238 244 258 260 257 253 252 244 246 252 245 170 164 155 167
145 136 110 128 132 127 154 177 170 199 202 189 192 174 142 180 139 122 193 170 188 246 196 158 255 192 174 213 233 243 243 248 253 251 251 254 248 246 230 182 166 165 163 161
142 114 107 152 150 178 194 158 151 191 212 178 149 159 138 141 176 140 160 197 220 209 224 231 227 195 241 235 229 256 247 240 244 241 228 242 261 270 194 171 163 154 153 161
112 160 153 202 159 208 188 178 181 213 164 155 162 156 141 157 162 168 163 211 156 246 234 224 219 219 228 250 252 250 261 265 266 250 256 262 266 218 185 162 154 150 149 157
161 194 197 189 183 220 197 198 191 192 155 160 148 92 112 138 181 180 183 173 228 218 201 228 224 226 221 230 241 248 252 204 184 219 245 298 178 138 124 145 147 146 147 151
182 230 183 204 174 215 215 179 195 199 159 149 138 125 159 193 177 176 202 203 207 223 226 228 227 232 240 244 253 232 161 155 136 130 142 126 114 121 118 125 137 146 152 152
194 208 215 196 196 197 193 204 185 187 165 163 134 165 189 145 190 198 205 205 228 216 257 243 221 244 241 196 164 150 144 131 141 130 135 127 125 128 123 121 134 140 152 163